Data for 03/27/2017

Time Sea-Level Adjusted Pressure Absolute Pressure Temperature Relative Humidity Dew Point   
(mb) (inHg) (mb) (inHg) (C) (F) (%) (C) (F)
00:05 1013 29.91 842 24.86 5.4 41.8 52 -3.7 25.4
00:10 1013 29.91 842 24.86 5.5 41.8 51 -3.8 25.1
00:15 1012 29.88 842 24.86 5.5 41.9 53 -3.3 26
00:20 1013 29.91 842 24.86 5.3 41.6 55 -2.9 26.8
00:25 1013 29.91 842 24.86 5 41.1 58 -2.4 27.7
00:30 1013 29.91 842 24.86 4.7 40.5 60 -2.3 27.9
00:35 1013 29.91 842 24.86 4.6 40.3 62 -2.1 28.1
00:40 1013 29.91 842 24.86 4.5 40.1 63 -1.9 28.5
00:45 1012 29.88 842 24.86 4.3 39.8 65 -1.7 28.9
00:50 1012 29.88 842 24.86 4.1 39.4 67 -1.5 29.3
00:55 1012 29.88 842 24.86 3.9 39 69 -1.3 29.6
01:00 1012 29.88 842 24.86 3.7 38.6 70 -1.2 29.8
01:05 1012 29.88 842 24.86 3.5 38.2 72 -1.1 30
01:10 1012 29.88 842 24.86 3.3 38 72 -1.2 29.9
01:15 1012 29.88 841 24.83 3.3 38 72 -1.2 29.9
01:20 1012 29.88 841 24.83 3.3 38 73 -1.1 30.1
01:25 1012 29.88 841 24.83 3.2 37.8 73 -1.1 30
01:30 1012 29.88 841 24.83 3.2 37.8 73 -1.2 29.9
01:35 1012 29.88 841 24.83 3.3 37.9 72 -1.2 29.8
01:40 1012 29.88 841 24.83 3.3 37.9 72 -1.3 29.7
01:45 1012 29.88 841 24.83 3.3 38 72 -1.2 29.8
01:50 1012 29.88 841 24.83 3.3 37.9 72 -1.3 29.6
01:55 1012 29.88 841 24.83 3.3 37.9 72 -1.3 29.6
02:00 1012 29.88 841 24.83 3.3 37.9 72 -1.3 29.6
02:05 1012 29.88 841 24.83 3.3 38 71 -1.4 29.5
02:10 1012 29.88 841 24.83 3.3 38 70 -1.5 29.2
02:15 1012 29.88 841 24.83 3.4 38.1 70 -1.5 29.3
02:20 1012 29.88 841 24.83 3.3 38 71 -1.5 29.3
02:25 1012 29.88 841 24.83 3.3 37.9 71 -1.5 29.3
02:30 1012 29.88 841 24.83 3.2 37.8 71 -1.6 29.2
02:35 1012 29.88 841 24.83 3.2 37.8 71 -1.5 29.4
02:40 1012 29.88 841 24.83 3.2 37.8 70 -1.6 29.1
02:45 1012 29.88 841 24.83 3.3 38 70 -1.7 28.9
02:50 1012 29.88 841 24.83 3.4 38.2 69 -1.7 29
02:55 1012 29.88 842 24.86 3.4 38.1 70 -1.6 29.1
03:00 1012 29.88 842 24.86 3.3 38 71 -1.5 29.4
03:05 1012 29.88 842 24.86 3.2 37.8 71 -1.5 29.3
03:10 1012 29.88 842 24.86 3.2 37.8 72 -1.5 29.4
03:15 1012 29.88 842 24.86 3.1 37.7 71 -1.6 29.2
03:20 1012 29.88 842 24.86 3.2 37.8 71 -1.5 29.3
03:25 1012 29.88 842 24.86 3.2 37.8 71 -1.6 29.1
03:30 1012 29.88 842 24.86 3.2 37.8 70 -1.7 29
03:35 1012 29.88 841 24.83 3.2 37.8 71 -1.5 29.3
03:40 1012 29.88 841 24.83 3.2 37.7 71 -1.5 29.3
03:45 1012 29.88 842 24.86 3 37.4 72 -1.6 29.2
03:50 1012 29.88 841 24.83 3 37.5 71 -1.7 29
03:55 1012 29.88 841 24.83 3 37.4 71 -1.7 29
04:00 1012 29.88 841 24.83 3.1 37.5 71 -1.7 28.9
04:05 1012 29.88 841 24.83 3.1 37.6 71 -1.7 28.9
04:10 1012 29.88 841 24.83 3.1 37.6 70 -1.8 28.8
04:15 1012 29.88 841 24.83 3.1 37.6 70 -1.9 28.7
04:20 1012 29.88 841 24.83 3.1 37.6 69 -2 28.5
04:25 1012 29.88 841 24.83 3.1 37.6 69 -2 28.4
04:30 1012 29.88 841 24.83 3.1 37.6 69 -2.1 28.3
04:35 1012 29.88 841 24.83 3.1 37.6 68 -2.2 28
04:40 1012 29.88 841 24.83 3.1 37.6 67 -2.4 27.6
04:45 1012 29.88 841 24.83 3.1 37.6 65 -2.8 27
04:50 1012 29.88 841 24.83 3.1 37.5 66 -2.6 27.4
04:55 1012 29.88 841 24.83 3 37.4 67 -2.5 27.5
05:00 1012 29.88 841 24.83 2.9 37.3 67 -2.5 27.4
05:05 1012 29.88 841 24.83 2.9 37.3 68 -2.4 27.8
05:10 1012 29.88 841 24.83 2.9 37.2 69 -2.1 28.1
05:15 1012 29.88 841 24.83 2.8 37.1 70 -2.2 28.1
05:20 1012 29.88 841 24.83 2.9 37.1 70 -2.1 28.1
05:25 1012 29.88 841 24.83 2.8 37.1 70 -2.1 28.3
05:30 1012 29.88 841 24.83 2.8 37 70 -2.1 28.3
05:35 1012 29.88 842 24.86 2.7 36.9 70 -2.2 28.1
05:40 1012 29.88 842 24.86 2.7 36.9 70 -2.2 28
05:45 1012 29.88 842 24.86 2.7 36.9 71 -2.1 28.3
05:50 1012 29.88 842 24.86 2.5 36.5 72 -2.1 28.3
05:55 1012 29.88 842 24.86 2.4 36.3 72 -2.1 28.3
06:00 1012 29.88 842 24.86 2.3 36.2 73 -2.1 28.2
06:05 1012 29.88 842 24.86 2.4 36.3 72 -2.1 28.2
06:10 1012 29.88 842 24.86 2.4 36.4 72 -2.1 28.1
06:15 1012 29.88 842 24.86 2.5 36.5 71 -2.2 28
06:20 1012 29.88 842 24.86 2.6 36.7 70 -2.3 27.9
06:25 1013 29.91 842 24.86 2.7 36.8 70 -2.3 27.9
06:30 1013 29.91 842 24.86 2.7 36.9 69 -2.4 27.8
06:35 1013 29.91 842 24.86 2.9 37.1 69 -2.3 27.8
06:40 1013 29.91 842 24.86 2.9 37.3 68 -2.3 27.8
06:45 1013 29.91 842 24.86 2.9 37.2 68 -2.4 27.7
06:50 1013 29.91 842 24.86 3 37.4 67 -2.4 27.6
06:55 1013 29.91 842 24.86 3.1 37.5 67 -2.4 27.7
07:00 1013 29.91 842 24.86 2.9 37.3 68 -2.4 27.8
07:05 1013 29.91 842 24.86 2.8 37.1 68 -2.4 27.7
07:10 1013 29.91 842 24.86 2.8 37 70 -2.2 28
07:15 1013 29.91 842 24.86 2.6 36.7 70 -2.3 27.9
07:20 1013 29.91 842 24.86 2.5 36.5 71 -2.2 28
07:25 1013 29.91 842 24.86 2.4 36.3 69 -2.7 27.1
07:30 1013 29.91 842 24.86 2.4 36.4 68 -2.8 26.9
07:35 1013 29.91 842 24.86 2.6 36.7 68 -2.7 27.2
07:40 1013 29.91 842 24.86 2.5 36.5 69 -2.6 27.3
07:45 1013 29.91 842 24.86 2.5 36.6 69 -2.5 27.5
07:50 1013 29.91 842 24.86 2.5 36.5 70 -2.4 27.7
07:55 1013 29.91 842 24.86 2.7 36.9 69 -2.5 27.5
08:00 1013 29.91 842 24.86 2.8 37 70 -2.2 28
08:05 1013 29.91 842 24.86 3 37.3 68 -2.4 27.7
08:10 1013 29.91 842 24.86 3.2 37.7 67 -2.3 27.9
08:15 1013 29.91 842 24.86 3.2 37.8 68 -2.2 28
08:20 1013 29.91 842 24.86 3.1 37.6 69 -2.1 28.3
08:25 1013 29.91 842 24.86 3.1 37.5 68 -2.2 28
08:30 1013 29.91 842 24.86 3.1 37.6 68 -2.1 28.2
08:35 1013 29.91 842 24.86 3.3 38 67 -2.2 28
08:40 1013 29.91 842 24.86 4 39.1 63 -2.3 27.8
08:45 1013 29.91 842 24.86 4.7 40.5 60 -2.4 27.7
08:50 1013 29.91 842 24.86 5.4 41.8 59 -1.9 28.6
08:55 1013 29.91 842 24.86 5.8 42.4 56 -2.3 27.8
09:00 1013 29.91 843 24.89 6.5 43.6 55 -2 28.5
09:05 1013 29.91 843 24.89 6 42.7 57 -1.9 28.5
09:10 1013 29.91 843 24.89 5.6 42.2 60 -1.6 29.1
09:15 1013 29.91 843 24.89 5 41 62 -1.8 28.8
09:20 1013 29.91 843 24.89 4.8 40.7 60 -2.2 28
09:25 1013 29.91 843 24.89 5 41 60 -2 28.3
09:30 1013 29.91 843 24.89 5.2 41.4 59 -2.1 28.3
09:35 1013 29.91 843 24.89 5.9 42.6 56 -2.2 28
09:40 1013 29.91 843 24.89 6.5 43.6 55 -2 28.5
09:45 1013 29.91 843 24.89 6.5 43.7 55 -1.9 28.6
09:50 1013 29.91 843 24.89 7.5 45.5 50 -2.2 28.1
09:55 1013 29.91 843 24.89 8.1 46.7 51 -1.4 29.5
10:00 1013 29.91 843 24.89 7.4 45.3 51 -2.1 28.2
10:05 1013 29.91 843 24.89 7.8 46 49 -2.2 28
10:10 1013 29.91 843 24.89 7.6 45.7 50 -2.2 28.1
10:15 1013 29.91 842 24.86 7.3 45.1 52 -1.9 28.6
10:20 1013 29.91 842 24.86 7.5 45.5 50 -2.3 27.8
10:25 1013 29.91 842 24.86 9 48.2 45 -2.2 28.1
10:30 1013 29.91 842 24.86 9.6 49.2 46 -1.4 29.5
10:35 1013 29.91 842 24.86 8.4 47 51 -1.3 29.7
10:40 1013 29.91 842 24.86 8 46.4 49 -2 28.4
10:45 1013 29.91 843 24.89 8.5 47.3 47 -2.1 28.3
10:50 1013 29.91 842 24.86 8.8 47.8 46 -2 28.3
10:55 1013 29.91 842 24.86 8.9 48.1 46 -2.2 28.1
11:00 1013 29.91 842 24.86 9.1 48.4 43 -2.7 27.1
11:05 1013 29.91 842 24.86 9.7 49.5 42 -2.5 27.6
11:10 1013 29.91 842 24.86 9.9 49.8 44 -1.7 28.9
11:15 1013 29.91 842 24.86 9.5 49.1 43 -2.4 27.8
11:20 1013 29.91 842 24.86 10.1 50.1 41 -2.6 27.3
11:25 1013 29.91 842 24.86 10 49.9 43 -2.1 28.3
11:30 1013 29.91 842 24.86 9.5 49.1 42 -2.6 27.3
11:35 1013 29.91 842 24.86 10.1 50.1 41 -2.6 27.3
11:40 1013 29.91 842 24.86 10.5 50.9 39 -2.9 26.8
11:45 1013 29.91 842 24.86 10.3 50.6 39 -3 26.7
11:50 1013 29.91 842 24.86 10.5 50.9 40 -2.5 27.4
11:55 1013 29.91 842 24.86 11 51.8 37 -3.2 26.2
12:00 1013 29.91 842 24.86 11.3 52.4 37 -2.8 26.9
12:05 1013 29.91 842 24.86 11.3 52.3 38 -2.5 27.5
12:10 1013 29.91 842 24.86 11.1 52 40 -2 28.3
12:15 1013 29.91 842 24.86 9.7 49.4 42 -2.6 27.3
12:20 1013 29.91 842 24.86 10.4 50.7 38 -3.4 25.8
12:25 1013 29.91 842 24.86 11 51.7 38 -2.8 27
12:30 1013 29.91 842 24.86 11.2 52.2 37 -2.8 27
12:35 1013 29.91 842 24.86 11.7 53.1 36 -2.8 27
12:40 1013 29.91 842 24.86 11.4 52.5 37 -2.9 26.9
12:45 1013 29.91 842 24.86 10.8 51.5 38 -2.8 27
12:50 1013 29.91 842 24.86 10.5 50.8 38 -3.1 26.4
12:55 1013 29.91 842 24.86 10.6 51 37 -3.5 25.6
13:00 1013 29.91 842 24.86 10.7 51.2 38 -3 26.6
13:05 1013 29.91 842 24.86 10.6 51 38 -3.1 26.3
13:10 1013 29.91 842 24.86 10.5 51 39 -2.7 27.1
13:15 1013 29.91 842 24.86 10.3 50.5 39 -2.9 26.7
13:20 1013 29.91 842 24.86 10.2 50.3 42 -2.1 28.2
13:25 1013 29.91 842 24.86 10.4 50.7 39 -2.8 26.9
13:30 1013 29.91 842 24.86 10.4 50.7 37 -3.6 25.5
13:35 1013 29.91 842 24.86 10.5 50.9 38 -3.2 26.2
13:40 1013 29.91 842 24.86 10.2 50.3 39 -3.3 26.1
13:45 1013 29.91 842 24.86 10.1 50.1 38 -3.5 25.7
13:50 1013 29.91 842 24.86 10 50.1 39 -3.3 26.1
13:55 1013 29.91 842 24.86 10.2 50.4 39 -3.2 26.2
14:00 1013 29.91 842 24.86 10.5 50.9 40 -2.5 27.5
14:05 1013 29.91 842 24.86 10.3 50.6 44 -1.3 29.6
14:10 1013 29.91 842 24.86 9.8 49.7 49 -0.4 31.2
14:15 1013 29.91 842 24.86 9.4 48.9 54 0.6 33
14:20 1013 29.91 842 24.86 8.9 48.1 52 -0.2 31.6
14:25 1013 29.91 842 24.86 8.9 48 49 -1.3 29.6
14:30 1013 29.91 842 24.86 8.5 47.3 56 0.1 32.3
14:35 1013 29.91 842 24.86 8.2 46.7 51 -1.5 29.4
14:40 1013 29.91 842 24.86 8.3 46.9 51 -1.2 29.8
14:45 1013 29.91 842 24.86 8.5 47.2 49 -1.6 29.1
14:50 1013 29.91 842 24.86 8.7 47.7 48 -1.8 28.8
14:55 1013 29.91 842 24.86 8.2 46.7 47 -2.3 27.8
15:00 1013 29.91 842 24.86 8.4 47.2 46 -2.5 27.4
15:05 1013 29.91 842 24.86 9.2 48.5 50 -0.6 30.9
15:10 1013 29.91 842 24.86 9.2 48.5 48 -1.3 29.7
15:15 1013 29.91 842 24.86 8.5 47.3 54 -0.2 31.6
15:20 1013 29.91 842 24.86 8.7 47.7 50 -1 30.2
15:25 1013 29.91 842 24.86 8.7 47.6 48 -1.8 28.7
15:30 1013 29.91 842 24.86 9 48.1 46 -2.1 28.2
15:35 1013 29.91 842 24.86 9.1 48.3 46 -1.9 28.5
15:40 1013 29.91 842 24.86 9.4 48.9 45 -1.9 28.5
15:45 1013 29.91 842 24.86 9.9 49.8 43 -2.1 28.1
15:50 1013 29.91 842 24.86 9.7 49.4 44 -1.8 28.7
15:55 1013 29.91 842 24.86 9.3 48.8 45 -2 28.3
16:00 1013 29.91 843 24.89 9.3 48.7 45 -2.1 28.3
16:05 1013 29.91 843 24.89 9.2 48.5 45 -2.2 28.1
16:10 1013 29.91 843 24.89 9.1 48.4 45 -2 28.4
16:15 1013 29.91 843 24.89 9 48.2 46 -2 28.4
16:20 1013 29.91 843 24.89 9.2 48.5 45 -2.1 28.2
16:25 1014 29.94 843 24.89 9 48.1 46 -2 28.5
16:30 1014 29.94 843 24.89 8.7 47.7 49 -1.3 29.7
16:35 1014 29.94 843 24.89 8.4 47 54 -0.4 31.2
16:40 1014 29.94 843 24.89 8.1 46.6 54 -0.5 31.1
16:45 1014 29.94 843 24.89 7.9 46.2 53 -1 30.2
16:50 1014 29.94 843 24.89 7.8 46 51 -1.6 29.1
16:55 1014 29.94 843 24.89 8 46.4 49 -2 28.5
17:00 1014 29.94 843 24.89 8.2 46.8 50 -1.5 29.3
17:05 1014 29.94 843 24.89 8.3 47 51 -1.2 29.9
17:10 1014 29.94 843 24.89 8.1 46.6 53 -0.8 30.5
17:15 1014 29.94 843 24.89 8 46.5 54 -0.6 30.8
17:20 1014 29.94 843 24.89 7.8 46 54 -0.8 30.5
17:25 1014 29.94 843 24.89 7.9 46.3 53 -0.9 30.4
17:30 1014 29.94 843 24.89 8 46.4 53 -0.9 30.4
17:35 1014 29.94 844 24.92 8.1 46.5 54 -0.6 30.9
17:40 1014 29.94 844 24.92 8 46.4 53 -1 30.2
17:45 1014 29.94 844 24.92 8.3 46.9 53 -0.8 30.5
17:50 1014 29.94 844 24.92 8.2 46.8 50 -1.6 29.1
17:55 1014 29.94 844 24.92 8.5 47.3 51 -0.9 30.4
18:00 1015 29.97 844 24.92 8.3 47 52 -1 30.2
18:05 1015 29.97 844 24.92 8.1 46.6 58 0.4 32.7
18:10 1015 29.97 844 24.92 7.4 45.3 62 0.6 33
18:15 1015 29.97 844 24.92 7 44.5 64 0.6 33.1
18:20 1015 29.97 844 24.92 6.8 44.2 67 1.1 33.9
18:25 1015 29.97 844 24.92 6.4 43.5 69 1.2 34.2
18:30 1015 29.97 844 24.92 6 42.9 69 0.8 33.5
18:35 1015 29.97 845 24.95 5.9 42.6 70 0.9 33.7
18:40 1015 29.97 845 24.95 5.9 42.6 70 0.9 33.6
18:45 1016 30 845 24.95 5.8 42.4 71 0.9 33.7
18:50 1016 30 845 24.95 5.7 42.3 71 0.9 33.5
18:55 1016 30 845 24.95 5.6 42.2 71 0.9 33.5
19:00 1016 30 845 24.95 5.8 42.4 71 0.9 33.7
19:05 1016 30 845 24.95 5.8 42.5 70 0.7 33.3
19:10 1016 30 845 24.95 5.7 42.3 68 0.4 32.7
19:15 1016 30 846 24.98 5.7 42.2 69 0.4 32.7
19:20 1016 30 846 24.98 5.6 42.1 70 0.6 33.2
19:25 1017 30.03 846 24.98 5.5 41.9 71 0.7 33.3
19:30 1017 30.03 846 24.98 5.3 41.6 72 0.8 33.4
19:35 1017 30.03 846 24.98 5.2 41.3 73 0.8 33.5
19:40 1017 30.03 846 24.98 4.8 40.7 78 1.4 34.5
19:45 1017 30.03 846 24.98 4.2 39.6 81 1.2 34.2
19:50 1017 30.03 846 24.98 3.9 39 81 0.9 33.7
19:55 1017 30.03 846 24.98 3.9 38.9 81 1 33.7
20:00 1017 30.03 846 24.98 3.9 39 81 0.9 33.6
20:05 1017 30.03 846 24.98 3.8 38.9 82 1 33.7
20:10 1017 30.03 847 25.01 3.9 38.9 81 0.9 33.6
20:15 1017 30.03 847 25.01 3.9 38.9 80 0.7 33.2
20:20 1017 30.03 847 25.01 3.8 38.8 79 0.5 33
20:25 1018 30.06 847 25.01 3.8 38.9 80 0.7 33.2
20:30 1018 30.06 847 25.01 3.8 38.9 81 0.8 33.5
20:35 1018 30.06 847 25.01 3.8 38.8 81 0.9 33.6
20:40 1018 30.06 847 25.01 3.8 38.9 77 0.3 32.5
20:45 1018 30.06 847 25.01 3.8 38.9 81 0.9 33.6
20:50 1018 30.06 847 25.01 3.7 38.7 80 0.6 33.1
20:55 1018 30.06 847 25.01 3.5 38.4 82 0.7 33.3
21:00 1018 30.06 847 25.01 3.4 38.2 82 0.6 33
21:05 1018 30.06 847 25.01 3.5 38.2 82 0.6 33.1
21:10 1018 30.06 847 25.01 3.5 38.3 82 0.6 33.2
21:15 1018 30.06 847 25.01 3.6 38.5 79 0.3 32.6
21:20 1018 30.06 847 25.01 3.5 38.3 77 -0.2 31.7
21:25 1018 30.06 847 25.01 3.7 38.7 76 -0.1 31.8
21:30 1018 30.06 847 25.01 3.8 38.8 79 0.4 32.8
21:35 1018 30.06 847 25.01 3.2 37.7 81 0.3 32.5
21:40 1018 30.06 847 25.01 3.1 37.5 81 0.1 32.1
21:45 1018 30.06 847 25.01 3.2 37.8 79 -0.1 31.7
21:50 1018 30.06 848 25.04 3.3 38 81 0.4 32.7
21:55 1018 30.06 848 25.04 3.3 38 76 -0.5 31
22:00 1018 30.06 848 25.04 3.5 38.3 79 0.1 32.2
22:05 1018 30.06 848 25.04 3.4 38.1 79 0 32.1
22:10 1019 30.09 848 25.04 3.5 38.3 78 0.1 32.1
22:15 1019 30.09 848 25.04 3.4 38.1 80 0.3 32.5
22:20 1019 30.09 848 25.04 3.3 37.9 79 0.1 32.1
22:25 1019 30.09 848 25.04 3.4 38.1 79 0 32
22:30 1019 30.09 848 25.04 3.4 38.1 79 -0 32
22:35 1019 30.09 848 25.04 3.3 38 79 0.1 32.1
22:40 1019 30.09 848 25.04 3.2 37.7 79 -0 31.9
22:45 1019 30.09 848 25.04 3.1 37.6 79 -0.1 31.8
22:50 1019 30.09 848 25.04 3.1 37.7 79 -0.2 31.6
22:55 1019 30.09 848 25.04 3.2 37.8 80 0 32
23:00 1019 30.09 848 25.04 3.1 37.7 80 0 32
23:05 1019 30.09 848 25.04 3 37.5 82 0.3 32.5
23:10 1019 30.09 848 25.04 2.9 37.3 83 0.3 32.6
23:15 1019 30.09 848 25.04 2.8 37.1 84 0.3 32.6
23:20 1019 30.09 848 25.04 2.9 37.3 83 0.3 32.6
23:25 1019 30.09 848 25.04 3.1 37.5 83 0.4 32.8
23:30 1019 30.09 848 25.04 3 37.5 82 0.3 32.5
23:35 1019 30.09 848 25.04 3 37.4 82 0.2 32.4
23:40 1019 30.09 848 25.04 3.2 37.7 75 -0.8 30.5
23:45 1019 30.09 848 25.04 3.3 38 74 -0.8 30.5
23:50 1019 30.09 849 25.07 3.4 38.1 76 -0.5 31.1
23:55 1019 30.09 849 25.07 3.3 37.9 76 -0.5 31.1
24:00 1020 30.12 849 25.07 3.3 37.9 76 -0.6 30.9